Year,Month,Day,Hour,Minute,Value (Times are PST for barometer in hPa)
2016,03,12,00,00,993.53
2016,03,12,00,01,993.53
2016,03,12,00,02,993.53
2016,03,12,00,03,993.53
2016,03,12,00,04,993.53
2016,03,12,00,05,993.53
2016,03,12,00,06,993.53
2016,03,12,00,07,993.53
2016,03,12,00,08,993.53
2016,03,12,00,09,993.53
2016,03,12,00,10,993.53
2016,03,12,00,11,993.53
2016,03,12,00,12,993.53
2016,03,12,00,13,993.53
2016,03,12,00,14,993.53
2016,03,12,00,15,993.73
2016,03,12,00,16,993.74
2016,03,12,00,17,993.74
2016,03,12,00,18,993.74
2016,03,12,00,19,993.74
2016,03,12,00,20,993.74
2016,03,12,00,21,993.74
2016,03,12,00,22,993.74
2016,03,12,00,23,993.74
2016,03,12,00,24,993.74
2016,03,12,00,25,993.74
2016,03,12,00,26,993.74
2016,03,12,00,27,993.74
2016,03,12,00,28,993.74
2016,03,12,00,29,993.74
2016,03,12,00,30,993.51
2016,03,12,00,31,993.50
2016,03,12,00,32,993.50
2016,03,12,00,33,993.50
2016,03,12,00,34,993.50
2016,03,12,00,35,993.50
2016,03,12,00,36,993.50
2016,03,12,00,37,993.50
2016,03,12,00,38,993.50
2016,03,12,00,39,993.50
2016,03,12,00,40,993.50
2016,03,12,00,41,993.50
2016,03,12,00,42,993.50
2016,03,12,00,43,993.50
2016,03,12,00,44,993.50
2016,03,12,00,45,993.73
2016,03,12,00,46,993.74
2016,03,12,00,47,993.74
2016,03,12,00,48,993.74
2016,03,12,00,49,993.74
2016,03,12,00,50,993.74
2016,03,12,00,51,993.74
2016,03,12,00,52,993.74
2016,03,12,00,53,993.74
2016,03,12,00,54,993.74
2016,03,12,00,55,993.74
2016,03,12,00,56,993.74
2016,03,12,00,57,993.74
2016,03,12,00,58,993.74
2016,03,12,00,59,993.74
2016,03,12,01,00,993.80
2016,03,12,01,01,993.80
2016,03,12,01,02,993.80
2016,03,12,01,03,993.80
2016,03,12,01,04,993.80
2016,03,12,01,05,993.80
2016,03,12,01,06,993.80
2016,03,12,01,07,993.80
2016,03,12,01,08,993.80
2016,03,12,01,09,993.80
2016,03,12,01,10,993.80
2016,03,12,01,11,993.80
2016,03,12,01,12,993.80
2016,03,12,01,13,993.80
2016,03,12,01,14,993.80
2016,03,12,01,15,993.65
2016,03,12,01,16,993.63
2016,03,12,01,17,993.63
2016,03,12,01,18,993.63
2016,03,12,01,19,993.63
2016,03,12,01,20,993.63
2016,03,12,01,21,993.63
2016,03,12,01,22,993.63
2016,03,12,01,23,993.63
2016,03,12,01,24,993.63
2016,03,12,01,25,993.63
2016,03,12,01,26,993.63
2016,03,12,01,27,993.63
2016,03,12,01,28,993.63
2016,03,12,01,29,993.63
2016,03,12,01,30,993.76
2016,03,12,01,31,993.77
2016,03,12,01,32,993.77
2016,03,12,01,33,993.77
2016,03,12,01,34,993.77
2016,03,12,01,35,993.77
2016,03,12,01,36,993.77
2016,03,12,01,37,993.77
2016,03,12,01,38,993.77
2016,03,12,01,39,993.77
2016,03,12,01,40,993.77
2016,03,12,01,41,993.77
2016,03,12,01,42,993.77
2016,03,12,01,43,993.77
2016,03,12,01,44,993.77
2016,03,12,01,45,993.77
2016,03,12,01,46,993.77
2016,03,12,01,47,993.77
2016,03,12,01,48,993.77
2016,03,12,01,49,993.77
2016,03,12,01,50,993.77
2016,03,12,01,51,993.77
2016,03,12,01,52,993.77
2016,03,12,01,53,993.77
2016,03,12,01,54,993.77
2016,03,12,01,55,993.77
2016,03,12,01,56,993.77
2016,03,12,01,57,993.77
2016,03,12,01,58,993.77
2016,03,12,01,59,993.77
2016,03,12,02,00,993.80
2016,03,12,02,01,993.80
2016,03,12,02,02,993.80
2016,03,12,02,03,993.80
2016,03,12,02,04,993.80
2016,03,12,02,05,993.80
2016,03,12,02,06,993.80
2016,03,12,02,07,993.80
2016,03,12,02,08,993.80
2016,03,12,02,09,993.80
2016,03,12,02,10,993.80
2016,03,12,02,11,993.80
2016,03,12,02,12,993.80
2016,03,12,02,13,993.80
2016,03,12,02,14,993.80
2016,03,12,02,15,993.77
2016,03,12,02,16,993.77
2016,03,12,02,17,993.77
2016,03,12,02,18,993.77
2016,03,12,02,19,993.77
2016,03,12,02,20,993.77
2016,03,12,02,21,993.77
2016,03,12,02,22,993.77
2016,03,12,02,23,993.77
2016,03,12,02,24,993.77
2016,03,12,02,25,993.77
2016,03,12,02,26,993.77
2016,03,12,02,27,993.77
2016,03,12,02,28,993.77
2016,03,12,02,29,993.77
2016,03,12,02,30,993.58
2016,03,12,02,31,993.57
2016,03,12,02,32,993.57
2016,03,12,02,33,993.57
2016,03,12,02,34,993.57
2016,03,12,02,35,993.57
2016,03,12,02,36,993.57
2016,03,12,02,37,993.57
2016,03,12,02,38,993.57
2016,03,12,02,39,993.57
2016,03,12,02,40,993.57
2016,03,12,02,41,993.57
2016,03,12,02,42,993.57
2016,03,12,02,43,993.57
2016,03,12,02,44,993.57
2016,03,12,02,45,993.83
2016,03,12,02,46,993.84
2016,03,12,02,47,993.84
2016,03,12,02,48,993.84
2016,03,12,02,49,993.84
2016,03,12,02,50,993.84
2016,03,12,02,51,993.84
2016,03,12,02,52,993.84
2016,03,12,02,53,993.84
2016,03,12,02,54,993.84
2016,03,12,02,55,993.84
2016,03,12,02,56,993.84
2016,03,12,02,57,993.84
2016,03,12,02,58,993.84
2016,03,12,02,59,993.84
2016,03,12,03,00,993.87
2016,03,12,03,01,993.87
2016,03,12,03,02,993.87
2016,03,12,03,03,993.87
2016,03,12,03,04,993.87
2016,03,12,03,05,993.87
2016,03,12,03,06,993.87
2016,03,12,03,07,993.87
2016,03,12,03,08,993.87
2016,03,12,03,09,993.87
2016,03,12,03,10,993.87
2016,03,12,03,11,993.87
2016,03,12,03,12,993.87
2016,03,12,03,13,993.87
2016,03,12,03,14,993.87
2016,03,12,03,15,993.94
2016,03,12,03,16,993.94
2016,03,12,03,17,993.94
2016,03,12,03,18,993.94
2016,03,12,03,19,993.94
2016,03,12,03,20,993.94
2016,03,12,03,21,993.94
2016,03,12,03,22,993.94
2016,03,12,03,23,993.94
2016,03,12,03,24,993.94
2016,03,12,03,25,993.94
2016,03,12,03,26,993.94
2016,03,12,03,27,993.94
2016,03,12,03,28,993.94
2016,03,12,03,29,993.94
2016,03,12,03,30,993.78
2016,03,12,03,31,993.77
2016,03,12,03,32,993.77
2016,03,12,03,33,993.77
2016,03,12,03,34,993.77
2016,03,12,03,35,993.77
2016,03,12,03,36,993.77
2016,03,12,03,37,993.77
2016,03,12,03,38,993.77
2016,03,12,03,39,993.77
2016,03,12,03,40,993.77
2016,03,12,03,41,993.77
2016,03,12,03,42,993.77
2016,03,12,03,43,993.77
2016,03,12,03,44,993.77
2016,03,12,03,45,993.55
2016,03,12,03,46,993.53
2016,03,12,03,47,993.53
2016,03,12,03,48,993.53
2016,03,12,03,49,993.53
2016,03,12,03,50,993.53
2016,03,12,03,51,993.53
2016,03,12,03,52,993.53
2016,03,12,03,53,993.53
2016,03,12,03,54,993.53
2016,03,12,03,55,993.53
2016,03,12,03,56,993.53
2016,03,12,03,57,993.53
2016,03,12,03,58,993.53
2016,03,12,03,59,993.53
2016,03,12,04,00,993.53
2016,03,12,04,01,993.53
2016,03,12,04,02,993.53
2016,03,12,04,03,993.53
2016,03,12,04,04,993.53
2016,03,12,04,05,993.53
2016,03,12,04,06,993.53
2016,03,12,04,07,993.53
2016,03,12,04,08,993.53
2016,03,12,04,09,993.53
2016,03,12,04,10,993.53
2016,03,12,04,11,993.53
2016,03,12,04,12,993.53
2016,03,12,04,13,993.53
2016,03,12,04,14,993.53
2016,03,12,04,15,993.31
2016,03,12,04,16,993.30
2016,03,12,04,17,993.30
2016,03,12,04,18,993.30
2016,03,12,04,19,993.30
2016,03,12,04,20,993.30
2016,03,12,04,21,993.30
2016,03,12,04,22,993.30
2016,03,12,04,23,993.30
2016,03,12,04,24,993.30
2016,03,12,04,25,993.30
2016,03,12,04,26,993.30
2016,03,12,04,27,993.30
2016,03,12,04,28,993.30
2016,03,12,04,29,993.30
2016,03,12,04,30,993.04
2016,03,12,04,31,993.03
2016,03,12,04,32,993.03
2016,03,12,04,33,993.03
2016,03,12,04,34,993.03
2016,03,12,04,35,993.03
2016,03,12,04,36,993.03
2016,03,12,04,37,993.03
2016,03,12,04,38,993.03
2016,03,12,04,39,993.03
2016,03,12,04,40,993.03
2016,03,12,04,41,993.03
2016,03,12,04,42,993.03
2016,03,12,04,43,993.03
2016,03,12,04,44,993.03
2016,03,12,04,45,993.24
2016,03,12,04,46,993.26
2016,03,12,04,47,993.26
2016,03,12,04,48,993.26
2016,03,12,04,49,993.26
2016,03,12,04,50,993.26
2016,03,12,04,51,993.26
2016,03,12,04,52,993.26
2016,03,12,04,53,993.26
2016,03,12,04,54,993.26
2016,03,12,04,55,993.26
2016,03,12,04,56,993.26
2016,03,12,04,57,993.26
2016,03,12,04,58,993.26
2016,03,12,04,59,993.26
2016,03,12,05,00,993.75
2016,03,12,05,01,993.77
2016,03,12,05,02,993.77
2016,03,12,05,03,993.77
2016,03,12,05,04,993.77
2016,03,12,05,05,993.77
2016,03,12,05,06,993.77
2016,03,12,05,07,993.77
2016,03,12,05,08,993.77
2016,03,12,05,09,993.77
2016,03,12,05,10,993.77
2016,03,12,05,11,993.77
2016,03,12,05,12,993.77
2016,03,12,05,13,993.77
2016,03,12,05,14,993.77
2016,03,12,05,15,993.95
2016,03,12,05,16,993.97
2016,03,12,05,17,993.97
2016,03,12,05,18,993.97
2016,03,12,05,19,993.97
2016,03,12,05,20,993.97
2016,03,12,05,21,993.97
2016,03,12,05,22,993.97
2016,03,12,05,23,993.97
2016,03,12,05,24,993.97
2016,03,12,05,25,993.97
2016,03,12,05,26,993.97
2016,03,12,05,27,993.97
2016,03,12,05,28,993.97
2016,03,12,05,29,993.97
2016,03,12,05,30,993.82
2016,03,12,05,31,993.80
2016,03,12,05,32,993.80
2016,03,12,05,33,993.80
2016,03,12,05,34,993.80
2016,03,12,05,35,993.80
2016,03,12,05,36,993.80
2016,03,12,05,37,993.80
2016,03,12,05,38,993.80
2016,03,12,05,39,993.80
2016,03,12,05,40,993.80
2016,03,12,05,41,993.80
2016,03,12,05,42,993.80
2016,03,12,05,43,993.80
2016,03,12,05,44,993.80
2016,03,12,05,45,993.77
2016,03,12,05,46,993.77
2016,03,12,05,47,993.77
2016,03,12,05,48,993.77
2016,03,12,05,49,993.77
2016,03,12,05,50,993.77
2016,03,12,05,51,993.77
2016,03,12,05,52,993.77
2016,03,12,05,53,993.77
2016,03,12,05,54,993.77
2016,03,12,05,55,993.77
2016,03,12,05,56,993.77
2016,03,12,05,57,993.77
2016,03,12,05,58,993.77
2016,03,12,05,59,993.77
2016,03,12,06,00,993.48
2016,03,12,06,01,993.47
2016,03,12,06,02,993.47
2016,03,12,06,03,993.47
2016,03,12,06,04,993.47
2016,03,12,06,05,993.47
2016,03,12,06,06,993.47
2016,03,12,06,07,993.47
2016,03,12,06,08,993.47
2016,03,12,06,09,993.47
2016,03,12,06,10,993.47
2016,03,12,06,11,993.47
2016,03,12,06,12,993.47
2016,03,12,06,13,993.47
2016,03,12,06,14,993.47
2016,03,12,06,15,994.11
2016,03,12,06,16,994.18
2016,03,12,06,17,994.18
2016,03,12,06,18,994.18
2016,03,12,06,19,994.18
2016,03,12,06,20,994.18
2016,03,12,06,21,994.18
2016,03,12,06,22,994.18
2016,03,12,06,23,994.18
2016,03,12,06,24,994.18
2016,03,12,06,25,994.18
2016,03,12,06,26,994.18
2016,03,12,06,27,994.18
2016,03,12,06,28,994.18
2016,03,12,06,29,994.18
2016,03,12,06,30,994.14
2016,03,12,06,31,994.14
2016,03,12,06,32,994.14
2016,03,12,06,33,994.14
2016,03,12,06,34,994.14
2016,03,12,06,35,994.14
2016,03,12,06,36,994.14
2016,03,12,06,37,994.14
2016,03,12,06,38,994.14
2016,03,12,06,39,994.14
2016,03,12,06,40,994.14
2016,03,12,06,41,994.14
2016,03,12,06,42,994.14
2016,03,12,06,43,994.14
2016,03,12,06,44,994.14
2016,03,12,06,45,994.54
2016,03,12,06,46,994.58
2016,03,12,06,47,994.58
2016,03,12,06,48,994.58
2016,03,12,06,49,994.58
2016,03,12,06,50,994.58
2016,03,12,06,51,994.58
2016,03,12,06,52,994.58
2016,03,12,06,53,994.58
2016,03,12,06,54,994.58
2016,03,12,06,55,994.58
2016,03,12,06,56,994.58
2016,03,12,06,57,994.58
2016,03,12,06,58,994.58
2016,03,12,06,59,994.58
2016,03,12,07,00,994.81
2016,03,12,07,01,994.82
2016,03,12,07,02,994.82
2016,03,12,07,03,994.82
2016,03,12,07,04,994.82
2016,03,12,07,05,994.82
2016,03,12,07,06,994.82
2016,03,12,07,07,994.82
2016,03,12,07,08,994.82
2016,03,12,07,09,994.82
2016,03,12,07,10,994.82
2016,03,12,07,11,994.82
2016,03,12,07,12,994.82
2016,03,12,07,13,994.82
2016,03,12,07,14,994.82
2016,03,12,07,15,995.24
2016,03,12,07,16,995.26
2016,03,12,07,17,995.26
2016,03,12,07,18,995.26
2016,03,12,07,19,995.26
2016,03,12,07,20,995.26
2016,03,12,07,21,995.26
2016,03,12,07,22,995.26
2016,03,12,07,23,995.26
2016,03,12,07,24,995.26
2016,03,12,07,25,995.26
2016,03,12,07,26,995.26
2016,03,12,07,27,995.26
2016,03,12,07,28,995.26
2016,03,12,07,29,995.26
2016,03,12,07,30,995.29
2016,03,12,07,31,995.29
2016,03,12,07,32,995.29
2016,03,12,07,33,995.29
2016,03,12,07,34,995.29
2016,03,12,07,35,995.29
2016,03,12,07,36,995.29
2016,03,12,07,37,995.29
2016,03,12,07,38,995.29
2016,03,12,07,39,995.29
2016,03,12,07,40,995.29
2016,03,12,07,41,995.29
2016,03,12,07,42,995.29
2016,03,12,07,43,995.29
2016,03,12,07,44,995.29
2016,03,12,07,45,995.33
2016,03,12,07,46,995.33
2016,03,12,07,47,995.33
2016,03,12,07,48,995.33
2016,03,12,07,49,995.33
2016,03,12,07,50,995.33
2016,03,12,07,51,995.33
2016,03,12,07,52,995.33
2016,03,12,07,53,995.33
2016,03,12,07,54,995.33
2016,03,12,07,55,995.33
2016,03,12,07,56,995.33
2016,03,12,07,57,995.33
2016,03,12,07,58,995.33
2016,03,12,07,59,995.33
2016,03,12,08,00,995.60
2016,03,12,08,01,995.63
2016,03,12,08,02,995.63
2016,03,12,08,03,995.63
2016,03,12,08,04,995.63
2016,03,12,08,05,995.63
2016,03,12,08,06,995.63
2016,03,12,08,07,995.63
2016,03,12,08,08,995.63
2016,03,12,08,09,995.63
2016,03,12,08,10,995.63
2016,03,12,08,11,995.63
2016,03,12,08,12,995.63
2016,03,12,08,13,995.63
2016,03,12,08,14,995.63
2016,03,12,08,15,995.91
2016,03,12,08,16,995.94
2016,03,12,08,17,995.94
2016,03,12,08,18,995.94
2016,03,12,08,19,995.94
2016,03,12,08,20,995.94
2016,03,12,08,21,995.94
2016,03,12,08,22,995.94
2016,03,12,08,23,995.94
2016,03,12,08,24,995.94
2016,03,12,08,25,995.94
2016,03,12,08,26,995.94
2016,03,12,08,27,995.94
2016,03,12,08,28,995.94
2016,03,12,08,29,995.94
2016,03,12,08,30,996.21
2016,03,12,08,31,996.24
2016,03,12,08,32,996.24
2016,03,12,08,33,996.24
2016,03,12,08,34,996.24
2016,03,12,08,35,996.24
2016,03,12,08,36,996.24
2016,03,12,08,37,996.24
2016,03,12,08,38,996.24
2016,03,12,08,39,996.24
2016,03,12,08,40,996.24
2016,03,12,08,41,996.24
2016,03,12,08,42,996.24
2016,03,12,08,43,996.24
2016,03,12,08,44,996.24
2016,03,12,08,45,996.37
2016,03,12,08,46,996.38
2016,03,12,08,47,996.38
2016,03,12,08,48,996.38
2016,03,12,08,49,996.38
2016,03,12,08,50,996.38
2016,03,12,08,51,996.38
2016,03,12,08,52,996.38
2016,03,12,08,53,996.38
2016,03,12,08,54,996.38
2016,03,12,08,55,996.38
2016,03,12,08,56,996.38
2016,03,12,08,57,996.38
2016,03,12,08,58,996.38
2016,03,12,08,59,996.38
2016,03,12,09,00,996.44
2016,03,12,09,01,996.45
2016,03,12,09,02,996.45
2016,03,12,09,03,996.45
2016,03,12,09,04,996.45
2016,03,12,09,05,996.45
2016,03,12,09,06,996.45
2016,03,12,09,07,996.45
2016,03,12,09,08,996.45
2016,03,12,09,09,996.45
2016,03,12,09,10,996.45
2016,03,12,09,11,996.45
2016,03,12,09,12,996.45
2016,03,12,09,13,996.45
2016,03,12,09,14,996.45
2016,03,12,09,15,996.41
2016,03,12,09,16,996.41
2016,03,12,09,17,996.41
2016,03,12,09,18,996.41
2016,03,12,09,19,996.41
2016,03,12,09,20,996.41
2016,03,12,09,21,996.41
2016,03,12,09,22,996.41
2016,03,12,09,23,996.41
2016,03,12,09,24,996.41
2016,03,12,09,25,996.41
2016,03,12,09,26,996.41
2016,03,12,09,27,996.41
2016,03,12,09,28,996.41
2016,03,12,09,29,996.41
2016,03,12,09,30,996.66
2016,03,12,09,31,996.68
2016,03,12,09,32,996.68
2016,03,12,09,33,996.68
2016,03,12,09,34,996.68
2016,03,12,09,35,996.68
2016,03,12,09,36,996.68
2016,03,12,09,37,996.68
2016,03,12,09,38,996.68
2016,03,12,09,39,996.68
2016,03,12,09,40,996.68
2016,03,12,09,41,996.68
2016,03,12,09,42,996.68
2016,03,12,09,43,996.68
2016,03,12,09,44,996.68
2016,03,12,09,45,996.88
2016,03,12,09,46,996.89
2016,03,12,09,47,996.89
2016,03,12,09,48,996.89
2016,03,12,09,49,996.89
2016,03,12,09,50,996.89
2016,03,12,09,51,996.89
2016,03,12,09,52,996.89
2016,03,12,09,53,996.89
2016,03,12,09,54,996.89
2016,03,12,09,55,996.89
2016,03,12,09,56,996.89
2016,03,12,09,57,996.89
2016,03,12,09,58,996.89
2016,03,12,09,59,996.89
2016,03,12,10,00,996.92
2016,03,12,10,01,996.92
2016,03,12,10,02,996.92
2016,03,12,10,03,996.92
2016,03,12,10,04,996.92
2016,03,12,10,05,996.92
2016,03,12,10,06,996.92
2016,03,12,10,07,996.92
2016,03,12,10,08,996.92
2016,03,12,10,09,996.92
2016,03,12,10,10,996.92
2016,03,12,10,11,996.92
2016,03,12,10,12,996.92
2016,03,12,10,13,996.92
2016,03,12,10,14,996.92
2016,03,12,10,15,997.16
2016,03,12,10,16,997.19
2016,03,12,10,17,997.19
2016,03,12,10,18,997.19
2016,03,12,10,19,997.19
2016,03,12,10,20,997.19
2016,03,12,10,21,997.19
2016,03,12,10,22,997.19
2016,03,12,10,23,997.19
2016,03,12,10,24,997.19
2016,03,12,10,25,997.19
2016,03,12,10,26,997.19
2016,03,12,10,27,997.19
2016,03,12,10,28,997.19
2016,03,12,10,29,997.19
2016,03,12,10,30,997.28
2016,03,12,10,31,997.29
2016,03,12,10,32,997.29
2016,03,12,10,33,997.29
2016,03,12,10,34,997.29
2016,03,12,10,35,997.29
2016,03,12,10,36,997.29
2016,03,12,10,37,997.29
2016,03,12,10,38,997.29
2016,03,12,10,39,997.29
2016,03,12,10,40,997.29
2016,03,12,10,41,997.29
2016,03,12,10,42,997.29
2016,03,12,10,43,997.29
2016,03,12,10,44,997.29
2016,03,12,10,45,997.42
2016,03,12,10,46,997.43
2016,03,12,10,47,997.43
2016,03,12,10,48,997.43
2016,03,12,10,49,997.43
2016,03,12,10,50,997.43
2016,03,12,10,51,997.43
2016,03,12,10,52,997.43
2016,03,12,10,53,997.43
2016,03,12,10,54,997.43
2016,03,12,10,55,997.43
2016,03,12,10,56,997.43
2016,03,12,10,57,997.43
2016,03,12,10,58,997.43
2016,03,12,10,59,997.43
2016,03,12,11,00,997.89
2016,03,12,11,01,997.94
2016,03,12,11,02,997.94
2016,03,12,11,03,997.94
2016,03,12,11,04,997.94
2016,03,12,11,05,997.94
2016,03,12,11,06,997.94
2016,03,12,11,07,997.94
2016,03,12,11,08,997.94
2016,03,12,11,09,997.94
2016,03,12,11,10,997.94
2016,03,12,11,11,997.94
2016,03,12,11,12,997.94
2016,03,12,11,13,997.94
2016,03,12,11,14,997.94
2016,03,12,11,15,998.24
2016,03,12,11,16,998.27
2016,03,12,11,17,998.27
2016,03,12,11,18,998.27
2016,03,12,11,19,998.27
2016,03,12,11,20,998.27
2016,03,12,11,21,998.27
2016,03,12,11,22,998.27
2016,03,12,11,23,998.27
2016,03,12,11,24,998.27
2016,03,12,11,25,998.27
2016,03,12,11,26,998.27
2016,03,12,11,27,998.27
2016,03,12,11,28,998.27
2016,03,12,11,29,998.27
2016,03,12,11,30,998.54
2016,03,12,11,31,998.54
2016,03,12,11,32,998.54
2016,03,12,11,33,998.54
2016,03,12,11,34,998.54
2016,03,12,11,35,998.54
2016,03,12,11,36,998.54
2016,03,12,11,37,998.54
2016,03,12,11,38,998.54
2016,03,12,11,39,998.54
2016,03,12,11,40,998.54
2016,03,12,11,41,998.54
2016,03,12,11,42,998.54
2016,03,12,11,43,998.54
2016,03,12,11,44,998.54
2016,03,12,11,45,998.77
2016,03,12,11,46,998.78
2016,03,12,11,47,998.78
2016,03,12,11,48,998.78
2016,03,12,11,49,998.78
2016,03,12,11,50,998.78
2016,03,12,11,51,998.78
2016,03,12,11,52,998.78
2016,03,12,11,53,998.78
2016,03,12,11,54,998.78
2016,03,12,11,55,998.78
2016,03,12,11,56,998.78
2016,03,12,11,57,998.78
2016,03,12,11,58,998.78
2016,03,12,11,59,998.78
2016,03,12,12,00,998.94
2016,03,12,12,01,998.95
2016,03,12,12,02,998.95
2016,03,12,12,03,998.95
2016,03,12,12,04,998.95
2016,03,12,12,05,998.95
2016,03,12,12,06,998.95
2016,03,12,12,07,998.95
2016,03,12,12,08,998.95
2016,03,12,12,09,998.95
2016,03,12,12,10,998.95
2016,03,12,12,11,998.95
2016,03,12,12,12,998.95
2016,03,12,12,13,998.95
2016,03,12,12,14,998.95
2016,03,12,12,15,998.92
2016,03,12,12,16,998.92
2016,03,12,12,17,998.92
2016,03,12,12,18,998.92
2016,03,12,12,19,998.92
2016,03,12,12,20,998.92
2016,03,12,12,21,998.92
2016,03,12,12,22,998.92
2016,03,12,12,23,998.92
2016,03,12,12,24,998.92
2016,03,12,12,25,998.92
2016,03,12,12,26,998.92
2016,03,12,12,27,998.92
2016,03,12,12,28,998.92
2016,03,12,12,29,998.92
2016,03,12,12,30,998.92
2016,03,12,12,31,998.92
2016,03,12,12,32,998.92
2016,03,12,12,33,998.92
2016,03,12,12,34,998.92
2016,03,12,12,35,998.92
2016,03,12,12,36,998.92
2016,03,12,12,37,998.92
2016,03,12,12,38,998.92
2016,03,12,12,39,998.92
2016,03,12,12,40,998.92
2016,03,12,12,41,998.92
2016,03,12,12,42,998.92
2016,03,12,12,43,998.92
2016,03,12,12,44,998.92
2016,03,12,12,45,998.92
2016,03,12,12,46,998.92
2016,03,12,12,47,998.92
2016,03,12,12,48,998.92
2016,03,12,12,49,998.92
2016,03,12,12,50,998.92
2016,03,12,12,51,998.92
2016,03,12,12,52,998.92
2016,03,12,12,53,998.92
2016,03,12,12,54,998.92
2016,03,12,12,55,998.92
2016,03,12,12,56,998.92
2016,03,12,12,57,998.92
2016,03,12,12,58,998.92
2016,03,12,12,59,998.92
2016,03,12,13,00,998.92
2016,03,12,13,01,998.92
2016,03,12,13,02,998.92
2016,03,12,13,03,998.92
2016,03,12,13,04,998.92
2016,03,12,13,05,998.92
2016,03,12,13,06,998.92
2016,03,12,13,07,998.92
2016,03,12,13,08,998.92
2016,03,12,13,09,998.92
2016,03,12,13,10,998.92
2016,03,12,13,11,998.92
2016,03,12,13,12,998.92
2016,03,12,13,13,998.92
2016,03,12,13,14,998.92
2016,03,12,13,15,998.95
2016,03,12,13,16,998.95
2016,03,12,13,17,998.95
2016,03,12,13,18,998.95
2016,03,12,13,19,998.95
2016,03,12,13,20,998.95
2016,03,12,13,21,998.95
2016,03,12,13,22,998.95
2016,03,12,13,23,998.95
2016,03,12,13,24,998.95
2016,03,12,13,25,998.95
2016,03,12,13,26,998.95
2016,03,12,13,27,998.95
2016,03,12,13,28,998.95
2016,03,12,13,29,998.95
2016,03,12,13,30,998.95
2016,03,12,13,31,998.95
2016,03,12,13,32,998.95
2016,03,12,13,33,998.95
2016,03,12,13,34,998.95
2016,03,12,13,35,998.95
2016,03,12,13,36,998.95
2016,03,12,13,37,998.95
2016,03,12,13,38,998.95
2016,03,12,13,39,998.95
2016,03,12,13,40,998.95
2016,03,12,13,41,998.95
2016,03,12,13,42,998.95
2016,03,12,13,43,998.95
2016,03,12,13,44,998.95
2016,03,12,13,45,998.95
2016,03,12,13,46,998.95
2016,03,12,13,47,998.95
2016,03,12,13,48,998.95
2016,03,12,13,49,998.95
2016,03,12,13,50,998.95
2016,03,12,13,51,998.95
2016,03,12,13,52,998.95
2016,03,12,13,53,998.95
2016,03,12,13,54,998.95
2016,03,12,13,55,998.95
2016,03,12,13,56,998.95
2016,03,12,13,57,998.95
2016,03,12,13,58,998.95
2016,03,12,13,59,998.95
2016,03,12,14,00,998.95
2016,03,12,14,01,998.95
2016,03,12,14,02,998.95
2016,03,12,14,03,998.95
2016,03,12,14,04,998.95
2016,03,12,14,05,998.95
2016,03,12,14,06,998.95
2016,03,12,14,07,998.95
2016,03,12,14,08,998.95
2016,03,12,14,09,998.95
2016,03,12,14,10,998.95
2016,03,12,14,11,998.95
2016,03,12,14,12,998.95
2016,03,12,14,13,998.95
2016,03,12,14,14,998.95
2016,03,12,14,15,998.99
2016,03,12,14,16,998.99
2016,03,12,14,17,998.99
2016,03,12,14,18,998.99
2016,03,12,14,19,998.99
2016,03,12,14,20,998.99
2016,03,12,14,21,998.99
2016,03,12,14,22,998.99
2016,03,12,14,23,998.99
2016,03,12,14,24,998.99
2016,03,12,14,25,998.99
2016,03,12,14,26,998.99
2016,03,12,14,27,998.99
2016,03,12,14,28,998.99
2016,03,12,14,29,998.99
2016,03,12,14,30,999.25
2016,03,12,14,31,999.26
2016,03,12,14,32,999.26
2016,03,12,14,33,999.26
2016,03,12,14,34,999.26
2016,03,12,14,35,999.26
2016,03,12,14,36,999.26
2016,03,12,14,37,999.26
2016,03,12,14,38,999.26
2016,03,12,14,39,999.26
2016,03,12,14,40,999.26
2016,03,12,14,41,999.26
2016,03,12,14,42,999.26
2016,03,12,14,43,999.26
2016,03,12,14,44,999.26
2016,03,12,14,45,999.38
2016,03,12,14,46,999.39
2016,03,12,14,47,999.39
2016,03,12,14,48,999.39
2016,03,12,14,49,999.39
2016,03,12,14,50,999.39
2016,03,12,14,51,999.39
2016,03,12,14,52,999.39
2016,03,12,14,53,999.39
2016,03,12,14,54,999.39
2016,03,12,14,55,999.39
2016,03,12,14,56,999.39
2016,03,12,14,57,999.39
2016,03,12,14,58,999.39
2016,03,12,14,59,999.39
2016,03,12,15,00,999.46
2016,03,12,15,01,999.46
2016,03,12,15,02,999.46
2016,03,12,15,03,999.46
2016,03,12,15,04,999.46
2016,03,12,15,05,999.46
2016,03,12,15,06,999.46
2016,03,12,15,07,999.46
2016,03,12,15,08,999.46
2016,03,12,15,09,999.46
2016,03,12,15,10,999.46
2016,03,12,15,11,999.46
2016,03,12,15,12,999.46
2016,03,12,15,13,999.46
2016,03,12,15,14,999.46
2016,03,12,15,15,999.49
2016,03,12,15,16,999.49
2016,03,12,15,17,999.49
2016,03,12,15,18,999.49
2016,03,12,15,19,999.49
2016,03,12,15,20,999.49
2016,03,12,15,21,999.49
2016,03,12,15,22,999.49
2016,03,12,15,23,999.49
2016,03,12,15,24,999.49
2016,03,12,15,25,999.49
2016,03,12,15,26,999.49
2016,03,12,15,27,999.49
2016,03,12,15,28,999.49
2016,03,12,15,29,999.49
2016,03,12,15,30,999.90
2016,03,12,15,31,999.90
2016,03,12,15,32,999.90
2016,03,12,15,33,999.90
2016,03,12,15,34,999.90
2016,03,12,15,35,999.90
2016,03,12,15,36,999.90
2016,03,12,15,37,999.90
2016,03,12,15,38,999.90
2016,03,12,15,39,999.90
2016,03,12,15,40,999.90
2016,03,12,15,41,999.90
2016,03,12,15,42,999.90
2016,03,12,15,43,999.90
2016,03,12,15,44,999.90
2016,03,12,15,45,1000.00
2016,03,12,15,46,1000.00
2016,03,12,15,47,1000.00
2016,03,12,15,48,1000.00
2016,03,12,15,49,1000.00
2016,03,12,15,50,1000.00
2016,03,12,15,51,1000.00
2016,03,12,15,52,1000.00
2016,03,12,15,53,1000.00
2016,03,12,15,54,1000.00
2016,03,12,15,55,1000.00
2016,03,12,15,56,1000.00
2016,03,12,15,57,1000.00
2016,03,12,15,58,1000.00
2016,03,12,15,59,1000.00
2016,03,12,16,00,999.97
2016,03,12,16,01,999.97
2016,03,12,16,02,999.97
2016,03,12,16,03,999.97
2016,03,12,16,04,999.97
2016,03,12,16,05,999.97
2016,03,12,16,06,999.97
2016,03,12,16,07,999.97
2016,03,12,16,08,999.97
2016,03,12,16,09,999.97
2016,03,12,16,10,999.97
2016,03,12,16,11,999.97
2016,03,12,16,12,999.97
2016,03,12,16,13,999.97
2016,03,12,16,14,999.97
2016,03,12,16,15,1000.20
2016,03,12,16,16,1000.20
2016,03,12,16,17,1000.20
2016,03,12,16,18,1000.20
2016,03,12,16,19,1000.20
2016,03,12,16,20,1000.20
2016,03,12,16,21,1000.20
2016,03,12,16,22,1000.20
2016,03,12,16,23,1000.20
2016,03,12,16,24,1000.20
2016,03,12,16,25,1000.20
2016,03,12,16,26,1000.20
2016,03,12,16,27,1000.20
2016,03,12,16,28,1000.20
2016,03,12,16,29,1000.20
2016,03,12,16,30,1000.27
2016,03,12,16,31,1000.27
2016,03,12,16,32,1000.27
2016,03,12,16,33,1000.27
2016,03,12,16,34,1000.27